Temp
86 83 78 71 71 71 71 72 72 72 73 73 74 73 73 74 74 74 74 74 73 73 73 73 72 72 71 69 69 71 87 90
84 82 80 82 81 70 70 71 71 72 72 72 72 72 73 73 73 73 73 73 72 73 72 72 72 71 70 69 69 70 85 89
80 77 77 78 82 80 72 71 71 71 73 71 72 85 83 81 78 73 72 72 71 71 71 71 70 70 69 68 68 85 87 87
78 77 77 76 78 82 82 83 83 83 83 83 84 85 86 86 80 71 71 70 70 70 70 69 71 85 81 71 82 87 87 84
80 77 77 77 76 83 81 79 82 84 84 84 84 86 85 85 86 83 82 73 83 78 79 82 83 85 83 83 84 80 81 80
83 82 80 78 79 82 85 84 80 77 80 82 84 84 84 85 87 86 82 85 82 83 84 83 83 83 82 80 81 80 78 82
85 84 81 80 75 84 84 84 81 79 81 83 82 79 79 85 85 86 85 83 82 82 83 82 81 81 80 80 80 79 77 78
87 84 83 82 80 80 83 83 84 82 82 85 80 84 79 76 82 80 85 84 83 83 82 81 81 80 78 79 79 77 72 79
83 83 84 81 80 81 83 85 83 84 84 83 83 83 82 75 74 74 80 85 81 80 80 79 79 78 77 78 78 77 75 77
81 82 82 83 82 83 83 85 84 85 84 84 82 83 83 75 75 73 75 79 80 78 77 75 76 75 75 77 76 77 75 76
77 77 78 80 82 83 83 82 83 85 85 83 80 80 80 73 73 74 72 72 74 75 73 74 73 72 74 74 72 74 75 75
74 75 74 76 81 82 83 83 82 84 84 83 79 79 76 72 72 73 70 69 71 71 70 71 71 70 70 71 72 72 72 74
71 71 72 74 77 80 80 74 77 81 83 81 79 77 73 71 71 70 69 69 69 70 70 68 67 69 64 63 67 70 70 71
68 69 70 71 74 78 82 81 80 80 81 79 76 75 73 71 71 69 69 70 69 69 67 64 66 68 63 61 58 60 66 70
65 67 67 68 69 73 76 81 81 79 77 76 74 74 72 70 71 70 69 71 69 69 66 66 62 64 69 63 56 56 58 64
65 64 65 66 67 68 70 75 77 80 79 79 73 72 74 71 71 71 71 71 69 70 68 70 69 63 64 69 63 66 63 60
61 61 61 63 62 61 63 68 77 81 80 76 71 70 71 72 72 72 71 70 70 69 67 70 73 70 65 63 64 63 60 63
57 56 57 58 57 57 58 60 68 76 79 75 70 69 68 69 71 71 72 69 68 68 71 71 69 72 72 70 67 60 61 60
53 51 50 53 51 52 55 56 64 69 76 76 72 69 66 67 69 69 69 69 71 70 71 71 71 70 69 70 71 71 70 66
48 44 44 46 47 49 51 53 58 70 72 71 74 72 68 68 68 70 70 70 68 69 70 71 70 69 67 67 65 64 65 64
MSLP
1008.11 1008.98 1009.56 1009.87 1010.00 1010.25 1010.55 1010.86 1011.32 1011.64 1011.74 1011.88 1012.26 1012.74 1012.95 1013.23 1013.49 1013.78 1014.03 1014.31 1014.55 1014.70 1015.02 1015.20 1015.70 1015.76 1015.95 1016.11 1016.33 1016.46 1015.62 1015.20
1008.07 1008.59 1009.33 1009.44 1009.95 1010.60 1010.83 1011.14 1011.44 1011.63 1011.89 1012.12 1012.30 1012.51 1012.91 1013.19 1013.45 1013.71 1013.93 1014.26 1014.52 1014.67 1015.03 1015.39 1015.67 1015.89 1016.10 1016.19 1016.30 1016.51 1015.91 1015.14
1008.31 1008.80 1009.23 1009.58 1009.56 1010.13 1010.96 1011.33 1011.63 1011.92 1012.12 1012.19 1012.54 1012.40 1012.68 1012.96 1013.11 1013.41 1013.80 1014.09 1014.47 1014.68 1015.08 1015.38 1015.65 1015.90 1016.18 1016.29 1016.36 1015.67 1015.48 1015.28
1008.47 1008.81 1009.08 1009.46 1009.76 1009.80 1010.39 1010.69 1011.12 1011.28 1011.60 1012.01 1011.89 1011.79 1012.02 1012.28 1012.74 1013.52 1013.84 1014.03 1014.32 1014.60 1015.06 1015.33 1015.59 1014.90 1015.56 1016.33 1015.71 1014.88 1014.98 1015.37
1007.72 1008.47 1008.96 1009.39 1009.69 1009.44 1009.84 1010.34 1010.66 1010.81 1010.84 1011.17 1011.62 1011.46 1011.50 1012.13 1012.30 1013.17 1013.45 1013.96 1013.66 1014.29 1014.73 1014.77 1014.51 1014.27 1014.43 1014.94 1014.94 1015.20 1015.26 1015.78
1007.22 1007.81 1008.36 1008.91 1009.30 1009.45 1009.26 1009.60 1010.23 1010.88 1011.01 1011.03 1010.86 1011.31 1011.35 1011.32 1011.45 1011.92 1012.70 1012.77 1012.96 1013.14 1013.29 1013.76 1013.90 1014.18 1014.51 1014.77 1014.88 1015.04 1015.29 1015.37
1006.57 1007.36 1007.79 1008.23 1008.96 1008.70 1008.85 1009.07 1009.68 1010.01 1010.38 1010.43 1010.95 1011.16 1011.30 1011.08 1011.06 1011.24 1011.87 1012.34 1012.59 1012.72 1012.87 1013.35 1013.80 1013.96 1014.31 1014.63 1014.84 1014.98 1015.61 1015.84
1006.28 1006.84 1007.40 1007.85 1007.99 1008.14 1008.32 1008.60 1008.64 1009.27 1009.47 1009.49 1010.45 1010.39 1010.97 1011.32 1011.14 1011.54 1011.28 1011.79 1012.13 1012.36 1012.67 1013.05 1013.30 1013.61 1014.21 1014.28 1014.51 1015.12 1015.59 1015.33
1006.49 1006.68 1006.95 1007.44 1007.58 1007.78 1007.59 1007.68 1008.12 1008.46 1008.59 1008.92 1009.39 1009.86 1010.01 1010.93 1011.15 1011.57 1011.44 1011.26 1011.81 1012.19 1012.49 1013.01 1013.34 1013.68 1014.03 1014.28 1014.48 1014.85 1015.21 1015.28
1006.70 1006.72 1006.79 1006.75 1006.94 1007.14 1007.20 1007.06 1007.38 1007.57 1007.99 1008.11 1008.67 1009.03 1009.26 1010.47 1010.73 1011.04 1011.42 1011.47 1011.68 1011.96 1012.46 1012.97 1013.16 1013.54 1013.92 1014.05 1014.34 1014.50 1014.93 1015.12
1006.78 1006.94 1006.81 1006.52 1006.19 1006.44 1006.59 1006.73 1006.89 1006.85 1006.94 1007.33 1008.02 1008.38 1008.66 1009.78 1010.46 1010.76 1011.05 1011.64 1011.68 1011.79 1012.23 1012.77 1012.95 1013.46 1013.60 1014.01 1014.35 1014.45 1014.64 1015.07
1007.01 1006.90 1006.84 1006.70 1006.10 1005.89 1005.81 1005.89 1006.21 1006.20 1006.15 1006.40 1007.37 1007.76 1008.20 1009.05 1009.89 1010.29 1010.71 1011.17 1011.45 1011.71 1012.01 1012.55 1012.79 1013.21 1013.63 1013.95 1014.14 1014.36 1014.46 1014.54
1007.73 1007.36 1007.21 1006.79 1005.95 1005.05 1004.97 1005.40 1005.61 1005.24 1005.43 1005.95 1006.61 1007.27 1007.91 1008.26 1009.18 1009.89 1010.30 1010.53 1010.81 1011.39 1011.76 1012.24 1012.70 1013.16 1013.82 1014.12 1014.17 1014.23 1014.36 1014.50
1008.16 1007.83 1007.52 1007.25 1006.57 1005.56 1004.36 1004.18 1004.47 1004.79 1004.95 1005.44 1005.98 1006.68 1007.17 1007.63 1008.24 1008.90 1009.59 1009.78 1010.23 1010.84 1011.21 1011.85 1012.34 1012.72 1013.38 1013.92 1014.10 1014.33 1014.18 1014.17
1008.50 1008.19 1007.92 1007.52 1007.09 1006.15 1005.10 1003.81 1003.61 1003.75 1004.19 1004.63 1005.04 1005.47 1005.82 1006.38 1006.82 1007.77 1008.56 1008.96 1009.16 1009.90 1010.56 1010.94 1011.71 1012.34 1012.54 1013.11 1013.79 1013.70 1014.02 1013.99
1008.77 1008.47 1008.22 1007.74 1007.26 1006.29 1005.26 1003.72 1002.38 1002.50 1002.74 1003.10 1003.85 1004.47 1004.91 1005.61 1006.13 1006.80 1007.53 1008.28 1008.52 1008.90 1009.80 1010.06 1010.87 1011.39 1012.26 1012.37 1012.77 1013.01 1013.09 1013.55
1008.95 1008.71 1008.36 1007.92 1007.53 1007.04 1006.06 1004.35 1002.57 1001.81 1001.80 1002.21 1003.02 1003.62 1004.11 1004.59 1005.21 1005.81 1006.63 1007.27 1007.91 1008.26 1008.94 1009.33 1009.69 1010.30 1011.02 1011.87 1012.38 1012.87 1012.96 1012.91
1009.27 1008.87 1008.42 1008.01 1007.66 1007.02 1006.07 1004.99 1003.46 1001.66 1001.06 1001.39 1002.21 1002.80 1003.28 1003.79 1004.26 1004.74 1005.46 1006.32 1007.20 1007.75 1008.07 1008.60 1009.17 1009.65 1009.96 1010.55 1011.19 1011.79 1012.07 1012.47
1009.88 1009.50 1008.80 1008.12 1007.62 1006.82 1005.81 1004.78 1003.47 1001.91 1000.54 1000.38 1001.21 1001.63 1002.29 1002.85 1003.44 1003.87 1004.55 1005.36 1006.14 1006.90 1007.31 1007.67 1008.22 1009.07 1009.38 1009.74 1010.31 1010.44 1010.93 1011.30
1010.66 1010.12 1009.08 1008.21 1007.38 1006.29 1005.34 1004.36 1002.99 1001.07 1000.15 1000.16 1000.20 1000.48 1001.30 1002.04 1002.87 1003.18 1003.52 1004.45 1005.32 1006.20 1006.90 1007.22 1007.44 1008.44 1008.98 1009.51 1010.06 1010.50 1010.90 1011.31
Wind_Speed
9 12 10 7 9 10 11 10 9 9 11 12 12 10 11 13 12 11 10 10 9 9 10 10 9 9 10 9 8 9 11 7
10 10 10 12 11 5 8 9 9 9 9 9 10 11 11 12 11 12 11 10 9 11 10 10 10 9 9 9 9 7 14 8
9 10 9 8 10 10 8 8 7 6 7 8 9 11 13 14 13 12 10 9 9 9 9 9 9 8 8 10 10 9 12 5
9 9 10 8 6 10 12 11 11 12 12 13 11 12 11 12 11 8 9 8 8 8 9 9 10 10 9 8 9 11 8 7
13 11 11 11 8 8 7 5 7 9 14 13 13 10 10 10 8 9 10 9 9 9 9 9 12 8 9 10 10 6 5 5
12 14 13 11 8 9 9 9 9 7 10 13 11 8 10 10 9 10 10 9 11 10 8 11 11 11 11 9 13 7 3 5
9 12 13 13 12 9 10 10 10 10 12 14 11 9 8 10 10 9 10 9 10 9 10 9 11 12 11 10 11 10 6 4
8 11 13 13 13 15 11 11 11 11 12 12 15 12 10 9 10 9 10 10 10 9 9 10 10 10 10 11 10 8 6 8
5 10 12 14 15 14 12 12 11 11 11 15 15 16 13 10 9 8 10 10 12 9 10 9 8 8 10 10 9 10 8 9
7 7 10 14 15 13 12 12 11 11 12 11 17 17 16 10 11 9 8 8 10 10 9 9 8 8 8 8 8 8 10 11
9 8 9 12 14 13 14 14 12 12 11 12 16 18 17 10 10 10 9 7 9 9 8 10 8 8 8 8 7 8 9 6
12 10 10 9 11 11 11 12 13 13 13 13 17 15 18 12 9 11 9 8 9 8 10 9 8 7 6 7 7 8 6 8
12 13 11 9 9 11 11 12 13 14 14 18 16 15 15 13 10 10 11 11 11 11 9 10 7 7 4 4 6 9 8 7
12 12 12 10 9 11 12 12 14 14 13 15 15 17 16 14 14 12 14 10 13 14 10 4 5 8 4 2 2 3 7 9
14 14 14 12 14 11 12 13 12 12 13 14 15 19 19 19 18 15 13 13 11 13 12 13 6 6 11 4 3 3 1 5
15 15 15 13 14 13 15 16 16 15 15 15 13 19 19 18 18 15 15 13 12 14 11 14 12 8 6 9 1 2 5 5
15 16 16 15 15 14 13 17 16 14 13 16 15 14 18 18 19 18 16 12 14 14 13 15 12 10 10 5 9 5 1 5
17 18 18 16 15 16 16 19 20 17 16 12 11 12 12 16 19 17 17 14 14 13 16 18 12 12 11 11 9 5 7 5
18 20 20 18 18 18 18 19 21 24 19 13 14 11 10 15 17 17 15 17 16 14 15 15 15 13 14 11 10 10 6 5
18 19 21 20 19 20 18 18 14 17 17 12 12 11 11 13 15 17 20 17 14 14 11 11 14 12 15 11 8 7 6 6
Wind_Direction
175 184 170 146 153 153 157 161 165 168 166 161 159 158 162 169 173 180 186 182 188 180 175 171 180 171 173 164 163 197 234 200
183 183 187 181 177 151 158 167 171 173 172 167 168 165 173 179 178 186 189 188 185 182 177 174 177 178 178 162 165 195 237 203
188 178 180 187 194 173 173 178 173 175 180 166 169 197 189 185 197 168 187 181 183 185 176 173 171 172 175 163 168 210 224 200
195 191 185 180 191 188 200 195 201 198 198 194 202 205 201 209 194 168 178 179 189 186 173 163 184 195 189 178 211 222 225 199
189 190 193 192 186 194 199 187 219 208 204 204 214 204 204 204 203 199 205 191 203 195 186 204 206 204 216 199 217 235 243 231
198 196 191 195 198 207 200 204 194 204 220 213 213 217 213 207 208 200 207 194 208 205 202 214 215 214 220 212 219 230 234 237
217 205 202 190 194 217 218 212 206 202 214 209 223 205 218 222 213 207 200 208 202 207 210 208 215 219 219 217 226 223 229 236
253 223 215 204 203 202 210 218 215 204 213 216 207 213 208 210 225 212 208 201 211 209 210 211 216 217 221 226 228 220 214 231
291 257 221 218 219 218 212 214 212 216 215 211 210 220 207 208 201 206 225 203 208 213 213 212 214 218 224 226 227 219 227 223
319 289 265 244 226 226 223 216 212 217 215 214 214 215 219 207 212 200 198 222 199 201 205 208 209 205 224 228 227 216 219 226
327 318 279 257 240 233 228 227 224 221 213 212 214 216 212 198 215 205 186 193 207 199 188 207 198 206 220 234 223 224 217 209
329 327 314 291 264 236 238 228 225 227 223 215 215 214 208 196 202 203 183 189 195 196 186 202 195 201 217 237 233 225 225 220
340 329 328 312 283 242 226 225 227 230 224 222 218 213 207 194 201 197 190 194 191 195 187 199 185 180 152 214 238 234 219 215
334 329 325 315 293 275 252 230 227 227 225 227 212 214 204 197 197 197 199 197 186 192 179 154 182 176 159 120 210 231 230 225
326 322 319 315 306 284 270 251 239 223 222 217 215 208 201 199 197 196 199 201 191 188 183 177 168 187 193 155 160 213 149 228
325 321 316 309 310 298 276 268 235 228 225 225 212 214 210 202 200 197 196 201 194 190 183 190 185 185 186 212 131 181 193 200
328 322 312 310 307 295 286 268 263 241 229 231 213 211 213 201 199 196 197 193 200 188 185 193 199 193 191 177 204 203 95 278
330 325 317 312 305 296 282 275 264 255 231 216 214 209 203 207 201 195 194 189 190 190 189 194 189 208 202 199 199 182 200 201
329 326 315 315 307 295 284 276 270 255 244 226 214 202 196 205 200 194 191 190 192 190 191 190 191 205 205 211 216 226 228 224
326 324 315 315 307 299 288 276 264 253 234 226 228 210 202 199 205 203 196 190 183 186 191 194 186 202 204 208 199 205 201 209